Home > Weather > St. Augustine > Past weeks

Flag for USA Weather for the Past 2 Weeks in St. Augustine, Florida, USA

Now
79 °F

Light rain. Mostly cloudy.


Feels Like: 82 °F
Forecast: 72 / 84 °F
Wind: 9 mph from Southwest

Location: St. Augustine Airport

Current Time: May 2, 2016 at 11:16:23 PM

Latest Report: May 2, 2016 at 10:04 PM


Visibility: 10 mi

Pressure: 30.01 "Hg

Humidity: 79%

Dew Point: 72 °F

Location of St. AugustineLocation

Historic Weather in St. Augustine — Graph

°F

St. Augustine Temperature Yesterday

Maximum temperature yesterday: 85 °F (at 12:58 PM)
Minimum temperature yesterday: 72 °F (at 4:58 AM)
Average temperature yesterday: 78 °F

High & Low Weather Summary for the Past Weeks

 TemperatureHumidityPressure
High88 °F (Apr 28, 1:58 PM)96% (Apr 24, 2:58 AM)30.30 "Hg (Apr 24, 2:58 AM)
Low56 °F (Apr 20, 5:58 AM)37% (Apr 20, 11:58 AM)29.87 "Hg (Apr 23, 4:58 PM)
Average73 °F75%30.04 "Hg
* Reported Apr 17 9:58 PM — May 2 9:58 PM, St. Augustine, Weather by CustomWeather, © 2016

Note: Actual official high and low records may vary slightly from our data, if they occured in-between our weather recording intervals... More about our weather records

Advertising

St. Augustine Weather History for the Previous 24 Hours

Scroll right to see more
 ConditionsComfort  
Time TempWeatherWind HumidityBarometerVisibility
9:58 PM
Mon, May 2
78 °FPartly cloudy.9 mph82%30.00 "Hg10 mi
8:58 PM77 °FPassing clouds.15 mph85%29.97 "Hg10 mi
7:58 PM77 °FHaze.15 mph82%29.95 "Hg6 mi
6:58 PM79 °FSunny.20 mph77%29.95 "Hg10 mi
5:58 PM81 °FSunny.17 mph69%29.96 "Hg10 mi
4:58 PM83 °FSunny.18 mph68%29.96 "Hg10 mi
3:58 PM83 °FPassing clouds.16 mph70%29.99 "Hg10 mi
2:58 PM84 °FSunny.17 mph67%30.02 "Hg10 mi
1:58 PM85 °FSunny.16 mph63%30.03 "Hg10 mi
12:58 PM84 °FScattered clouds.16 mph67%30.04 "Hg6 mi
11:58 AM83 °FScattered clouds.15 mph70%30.06 "Hg10 mi
10:58 AM84 °FScattered clouds.9 mph59%30.07 "Hg10 mi
9:58 AM81 °FMostly cloudy.12 mph69%30.08 "Hg5 mi
8:58 AM77 °FScattered clouds.7 mph82%30.07 "Hg5 mi
7:58 AM74 °FFog.5 mph91%30.05 "Hg5 mi
6:58 AM70 °FClear.3 mph93%30.04 "Hg7 mi
5:58 AM69 °FPassing clouds.No wind93%30.04 "Hg9 mi
4:58 AM71 °FClear.No wind93%30.03 "Hg10 mi
3:58 AM72 °FClear.3 mph91%30.03 "Hg10 mi
2:58 AM74 °FPassing clouds.3 mph88%30.03 "Hg10 mi
1:58 AM74 °FClear.9 mph88%30.03 "Hg10 mi
12:58 AM74 °FClear.7 mph91%30.05 "Hg10 mi
11:58 PM
Sun, May 1
74 °FClear.7 mph91%30.06 "Hg10 mi
Weather by CustomWeather, © 2016

See weather overviewHow to use our weather pages